VR2HK-13 Weather Reports


Display with metric or nautical units.
time (UTC)temp
F
wind
direction
speed
MPH
gust
MPH
rain 1hr
in
rain 24hr
in
rain mn
in
humidity
%
barometer
mb
20260903184041 81 192 7.0 13.0 0.00 0.00 0.00 74 1001.2
20260903184010 81 195 7.0 13.0 0.00 0.00 0.00 74 1001.2
20260903183531 81 167 8.0 16.0 0.00 0.00 0.00 74 1001.2
20260903183510 81 214 9.0 16.0 0.00 0.00 0.00 74 1001.2
20260903183022 81 226 10.0 20.0 0.00 0.00 0.00 74 1001.1
20260903183010 81 203 10.0 20.0 0.00 0.00 0.00 74 1001.1
20260903182512 81 206 8.0 14.0 0.00 0.00 0.00 74 1001.2
20260903182510 81 245 8.0 14.0 0.00 0.00 0.00 74 1001.2
20260903182010 81 195 9.0 17.0 0.00 0.00 0.00 74 1001.2
20260903182001 81 234 10.0 17.0 0.00 0.00 0.00 74 1001.2
20260903181510 81 197 9.0 16.0 0.00 0.00 0.00 73 1001.2
20260903181451 81 252 9.0 16.0 0.00 0.00 0.00 73 1001.2
20260903181010 81 163 10.0 15.0 0.00 0.00 0.00 73 1001.3
20260903180942 81 148 11.0 15.0 0.00 0.00 0.00 73 1001.3
20260903180510 81 171 8.0 16.0 0.00 0.00 0.00 74 1001.2
20260903180431 81 240 9.0 16.0 0.00 0.00 0.00 74 1001.2
20260903180010 81 233 6.0 14.0 0.00 0.00 0.00 73 1001.2
20260903175921 81 221 6.0 14.0 0.00 0.00 0.00 73 1001.3
20260903175510 81 224 9.0 16.0 0.00 0.00 0.00 73 1001.1
20260903175412 81 206 10.0 16.0 0.00 0.00 0.00 73 1001.2
20260903175009 81 185 11.0 16.0 0.00 0.00 0.00 73 1001.2
20260903174901 81 210 9.0 16.0 0.00 0.00 0.00 73 1001.2
20260903174509 82 193 8.0 17.0 0.00 0.00 0.00 74 1001.1
20260903174351 82 221 11.0 17.0 0.00 0.00 0.00 73 1001.1
20260903174010 82 139 7.0 11.0 0.00 0.00 0.00 73 1001.2
20260903173841 82 231 5.0 11.0 0.00 0.00 0.00 73 1001.2
20260903173510 82 193 4.0 9.0 0.00 0.00 0.00 73 1001.2
20260903173009 82 191 5.0 9.0 0.00 0.00 0.00 72 1001.2
20260903172821 82 157 4.0 6.0 0.00 0.00 0.00 72 1001.3
20260903172509 82 230 4.0 11.0 0.00 0.00 0.00 72 1001.2
20260903172311 82 192 5.0 11.0 0.00 0.00 0.00 72 1001.2
20260903172010 82 149 5.0 11.0 0.00 0.00 0.00 72 1001.2
20260903171801 82 134 3.0 11.0 0.00 0.00 0.00 72 1001.2
20260903171510 82 255 3.0 11.0 0.00 0.00 0.00 72 1001.1
20260903171250 82 208 3.0 11.0 0.00 0.00 0.00 71 1001.1
20260903171009 82 301 4.0 8.0 0.00 0.00 0.00 72 1001.1
20260903170741 82 228 3.0 16.0 0.00 0.00 0.00 71 1001.1
20260903170510 82 148 3.0 16.0 0.00 0.00 0.00 71 1001.1
20260903170231 82 252 6.0 11.0 0.00 0.00 0.00 71 1001.1
20260903170010 82 192 6.0 11.0 0.00 0.00 0.00 71 1001.1
20260903165720 82 95 5.0 8.0 0.00 0.00 0.00 71 1001.1
20260903165509 82 133 2.0 5.0 0.00 0.00 0.00 71 1001.1
20260903165211 82 117 1.0 6.0 0.00 0.00 0.00 71 1001.0
20260903165009 82 213 3.0 10.0 0.00 0.00 0.00 71 1001.1
20260903164701 82 138 6.0 13.0 0.00 0.00 0.00 72 1001.0
20260903164510 82 163 7.0 13.0 0.00 0.00 0.00 71 1001.0
20260903164150 82 135 6.0 13.0 0.00 0.00 0.00 71 1001.0
20260903164009 82 111 4.0 13.0 0.00 0.00 0.00 71 1001.0
20260903163640 82 136 6.0 10.0 0.00 0.00 0.00 72 1001.0
20260903163509 82 194 3.0 6.0 0.00 0.00 0.00 72 1001.1
20260903163131 82 169 1.0 8.0 0.00 0.00 0.00 72 1001.1
20260903163009 82 50 1.0 8.0 0.00 0.00 0.00 72 1001.1
20260903162620 82 99 4.0 11.0 0.00 0.00 0.00 72 1001.0
20260903162509 82 156 6.0 11.0 0.00 0.00 0.00 72 1001.1
20260903162110 82 204 7.0 11.0 0.00 0.00 0.00 73 1001.1
20260903162009 82 197 8.0 11.0 0.00 0.00 0.00 73 1001.1
20260903161601 82 207 6.0 12.0 0.00 0.00 0.00 73 1001.1
20260903161509 82 182 7.0 13.0 0.00 0.00 0.00 73 1001.1
20260903161009 82 163 9.0 17.0 0.00 0.00 0.00 73 1001.1
20260903160540 82 245 10.0 14.0 0.00 0.00 0.00 72 1001.1
20260903160509 82 194 10.0 14.0 0.00 0.00 0.00 72 1001.1
20260903160031 83 151 8.0 12.0 0.00 0.00 0.00 72 1001.2
20260903160009 83 222 8.0 12.0 0.00 0.00 0.00 72 1001.2
20260903155520 82 212 10.0 17.0 0.00 0.00 0.00 72 1001.2
20260903155509 82 245 10.0 17.0 0.00 0.00 0.00 72 1001.1
20260903155011 83 229 7.0 13.0 0.00 0.00 0.00 72 1001.1
20260903155009 83 194 7.0 13.0 0.00 0.00 0.00 72 1001.1
20260903154509 83 286 7.0 10.0 0.00 0.00 0.00 72 1001.1
20260903154500 83 193 7.0 10.0 0.00 0.00 0.00 72 1001.0
20260903154009 83 195 6.0 10.0 0.00 0.00 0.00 72 1001.1
20260903153950 83 179 6.0 10.0 0.00 0.00 0.00 72 1001.1
20260903153509 83 151 7.0 14.0 0.00 0.00 0.00 72 1001.1
20260903153440 83 99 9.0 14.0 0.00 0.00 0.00 72 1001.0
20260903153008 83 191 5.0 11.0 0.00 0.00 0.00 72 1001.0
20260903152930 83 183 5.0 13.0 0.00 0.00 0.00 72 1001.1
20260903152508 83 235 7.0 13.0 0.00 0.00 0.00 72 1001.1
20260903152420 83 226 6.0 12.0 0.00 0.00 0.00 72 1001.1
20260903152009 83 129 3.0 9.0 0.00 0.00 0.00 72 1001.1
20260903151910 83 180 4.0 9.0 0.00 0.00 0.00 72 1001.1
20260903151508 83 127 3.0 13.0 0.00 0.00 0.00 72 1001.1
20260903151400 83 30 2.0 13.0 0.00 0.00 0.00 72 1001.1
20260903151008 83 163 7.0 12.0 0.00 0.00 0.00 72 1001.2
20260903150850 83 251 4.0 10.0 0.00 0.00 0.00 72 1001.2
20260903150509 83 210 5.0 18.0 0.00 0.00 0.00 72 1001.2
20260903150339 83 112 8.0 18.0 0.00 0.00 0.00 72 1001.1
20260903150008 83 157 0.0 4.0 0.00 0.00 0.00 72 1001.2
20260903145830 83 76 1.0 5.0 0.00 0.00 0.00 72 1001.2
20260903145509 83 180 1.0 10.0 0.00 0.00 0.00 72 1001.1
20260903145320 83 224 5.0 10.0 0.00 0.00 0.00 72 1001.2
20260903145008 83 35 4.0 11.0 0.00 0.00 0.00 72 1001.2
20260903144809 83 177 8.0 16.0 0.00 0.00 0.00 72 1001.2
20260903144508 83 190 3.0 16.0 0.00 0.00 0.00 72 1001.2
20260903144300 83 234 6.0 11.0 0.00 0.00 0.00 72 1001.1
20260903144009 83 200 6.0 13.0 0.00 0.00 0.00 72 1001.1
20260903143750 83 156 5.0 13.0 0.00 0.00 0.00 72 1001.1
20260903143508 83 85 6.0 17.0 0.00 0.00 0.00 72 1001.1
20260903143239 83 61 7.0 17.0 0.00 0.00 0.00 72 1001.1
20260903143008 83 203 9.0 15.0 0.00 0.00 0.00 72 1001.1
20260903142730 83 203 7.0 14.0 0.00 0.00 0.00 73 1001.0
20260903142508 83 233 8.0 13.0 0.00 0.00 0.00 73 1000.9
20260903142008 83 160 9.0 18.0 0.00 0.00 0.00 72 1001.0
20260903141710 83 189 9.0 13.0 0.00 0.00 0.00 73 1001.0
20260903141508 83 152 5.0 13.0 0.00 0.00 0.00 73 1001.0
20260903141200 83 198 7.0 15.0 0.00 0.00 0.00 73 1000.9
20260903141009 83 216 6.0 15.0 0.00 0.00 0.00 73 1000.9
20260903140649 83 156 8.0 21.0 0.00 0.00 0.00 73 1000.9
20260903140508 83 95 4.0 21.0 0.00 0.00 0.00 73 1000.9
20260903140139 83 151 7.0 15.0 0.00 0.00 0.00 73 1001.0
20260903140008 83 167 6.0 12.0 0.00 0.00 0.00 73 1000.9
20260903135630 83 213 3.0 9.0 0.00 0.00 0.00 73 1000.9
20260903135507 83 161 2.0 9.0 0.00 0.00 0.00 73 1000.9
20260903135119 83 197 4.0 8.0 0.00 0.00 0.00 73 1000.9
20260903135008 83 148 2.0 10.0 0.00 0.00 0.00 73 1000.9
20260903134609 83 199 6.0 12.0 0.00 0.00 0.00 72 1000.9
20260903134508 83 190 6.0 12.0 0.00 0.00 0.00 72 1000.9
20260903134100 83 174 8.0 15.0 0.00 0.00 0.00 72 1000.9
20260903134008 83 176 7.0 17.0 0.00 0.00 0.00 72 1000.8
20260903133549 83 161 12.0 18.0 0.00 0.00 0.00 72 1000.8
20260903133508 83 160 14.0 18.0 0.00 0.00 0.00 72 1000.8
20260903133040 83 132 7.0 15.0 0.00 0.00 0.00 73 1000.7
20260903133008 83 145 6.0 15.0 0.00 0.00 0.00 73 1000.7
20260903132529 83 35 3.0 9.0 0.00 0.00 0.00 73 1000.7
20260903132507 83 106 4.0 9.0 0.00 0.00 0.00 73 1000.7
20260903132019 83 198 8.0 21.0 0.00 0.00 0.00 73 1000.6
20260903132008 83 182 10.0 21.0 0.00 0.00 0.00 73 1000.6
20260903131510 82 165 8.0 16.0 0.00 0.00 0.00 74 1000.6
20260903131508 82 162 8.0 16.0 0.00 0.00 0.00 74 1000.6
20260903131007 82 187 7.0 10.0 0.00 0.00 0.00 75 1000.6
20260903130959 82 237 7.0 11.0 0.00 0.00 0.00 75 1000.6
20260903130508 82 217 8.0 13.0 0.00 0.00 0.00 75 1000.6
20260903130007 82 218 5.0 16.0 0.00 0.00 0.00 75 1000.5
20260903125939 82 196 6.0 16.0 0.00 0.00 0.00 75 1000.5
20260903125507 82 227 8.0 16.0 0.00 0.00 0.00 75 1000.4
20260903125429 82 164 10.0 16.0 0.00 0.00 0.00 74 1000.4
20260903125008 83 180 7.0 12.0 0.00 0.00 0.00 74 1000.3
20260903124919 83 159 8.0 12.0 0.00 0.00 0.00 74 1000.3
20260903124507 83 160 5.0 12.0 0.00 0.00 0.00 74 1000.2
20260903124409 83 239 6.0 14.0 0.00 0.00 0.00 74 1000.2
20260903124008 83 151 9.0 16.0 0.00 0.00 0.00 74 1000.2
20260903123859 83 245 7.0 16.0 0.00 0.00 0.00 74 1000.2
20260903123507 83 136 6.0 18.0 0.00 0.00 0.00 73 1000.2
20260903123348 83 229 10.0 19.0 0.00 0.00 0.00 73 1000.2
20260903123007 83 228 12.0 19.0 0.00 0.00 0.00 73 1000.2
20260903122839 83 155 12.0 19.0 0.00 0.00 0.00 73 1000.2
20260903122507 83 138 7.0 18.0 0.00 0.00 0.00 73 1000.1
20260903122328 83 9 9.0 18.0 0.00 0.00 0.00 73 1000.1
20260903122007 83 169 6.0 14.0 0.00 0.00 0.00 73 1000.1
20260903121819 83 169 4.0 14.0 0.00 0.00 0.00 73 1000.1
20260903121507 83 166 2.0 9.0 0.00 0.00 0.00 73 1000.1
20260903121308 83 178 2.0 15.0 0.00 0.00 0.00 73 1000.1
20260903121007 83 154 7.0 15.0 0.00 0.00 0.00 73 1000.1
20260903120759 83 146 9.0 19.0 0.00 0.00 0.00 73 1000.1
20260903120506 83 208 10.0 19.0 0.00 0.00 0.00 73 1000.0
20260903120248 83 251 10.0 18.0 0.00 0.00 0.00 73 1000.1
20260903120007 83 218 5.0 16.0 0.00 0.00 0.00 73 1000.1
20260903115738 83 169 5.0 9.0 0.00 0.00 0.00 73 1000.0
20260903115507 83 156 4.0 13.0 0.00 0.00 0.00 73 1000.1
20260903115228 83 129 6.0 17.0 0.00 0.00 0.00 73 1000.0
20260903115007 83 145 12.0 17.0 0.00 0.00 0.00 73 1000.0
20260903114718 83 68 7.0 17.0 0.00 0.00 0.00 73 1000.0
20260903114507 83 335 8.0 17.0 0.00 0.00 0.00 73 999.9
20260903114209 83 172 10.0 17.0 0.00 0.00 0.00 72 999.9
20260903114006 84 161 9.0 17.0 0.00 0.00 0.00 72 999.9
20260903113658 84 147 4.0 23.0 0.00 0.00 0.00 72 999.9
20260903113507 84 155 4.0 23.0 0.00 0.00 0.00 72 999.9
20260903113148 84 158 6.0 15.0 0.00 0.00 0.00 72 999.8
20260903113007 84 176 6.0 11.0 0.00 0.00 0.00 72 999.8
20260903112637 84 137 4.0 12.0 0.00 0.00 0.00 72 999.8
20260903112506 84 53 6.0 12.0 0.00 0.00 0.00 72 999.8
20260903112128 84 183 5.0 20.0 0.00 0.00 0.00 72 999.8
20260903112007 84 138 2.0 20.0 0.00 0.00 0.00 72 999.8
20260903111618 84 161 9.0 19.0 0.00 0.00 0.00 72 999.8
20260903111507 84 135 9.0 19.0 0.00 0.00 0.00 72 999.7
20260903111108 84 135 11.0 16.0 0.00 0.00 0.00 72 999.6
20260903111006 84 211 7.0 11.0 0.00 0.00 0.00 72 999.6
20260903110558 84 345 5.0 12.0 0.00 0.00 0.00 72 999.6
20260903110507 84 63 7.0 12.0 0.00 0.00 0.00 72 999.7
20260903110048 84 52 6.0 13.0 0.00 0.00 0.00 72 999.6
20260903110007 84 59 9.0 13.0 0.00 0.00 0.00 72 999.6
20260903105537 84 152 2.0 18.0 0.00 0.00 0.00 72 999.6
20260903105506 84 186 4.0 18.0 0.00 0.00 0.00 72 999.5
20260903105028 84 55 5.0 17.0 0.00 0.00 0.00 71 999.5
20260903105006 84 143 4.0 17.0 0.00 0.00 0.00 71 999.5
20260903104518 84 125 11.0 21.0 0.00 0.00 0.00 71 999.6
20260903104507 84 163 12.0 21.0 0.00 0.00 0.00 71 999.6
20260903104006 84 160 5.0 19.0 0.00 0.00 0.00 71 999.4
20260903103506 84 247 6.0 12.0 0.00 0.00 0.00 71 999.4
20260903103006 84 125 4.0 18.0 0.00 0.00 0.00 71 999.4
20260903102506 84 154 10.0 20.0 0.00 0.00 0.00 71 999.3
20260903102438 84 152 12.0 20.0 0.00 0.00 0.00 71 999.3
20260903102007 84 163 11.0 26.0 0.00 0.00 0.00 71 999.3
20260903101928 84 166 13.0 26.0 0.00 0.00 0.00 71 999.2
20260903101506 85 146 12.0 19.0 0.00 0.00 0.00 70 999.3
20260903101417 85 212 5.0 19.0 0.00 0.00 0.00 70 999.2
20260903101006 85 119 6.0 11.0 0.00 0.00 0.00 70 999.2
20260903100908 85 128 5.0 17.0 0.00 0.00 0.00 70 999.2
20260903100505 85 144 9.0 21.0 0.00 0.00 0.00 70 999.2
20260903100357 85 161 10.0 21.0 0.00 0.00 0.00 70 999.1
20260903100006 85 124 2.0 17.0 0.00 0.00 0.00 70 999.1
20260903095506 85 31 7.0 15.0 0.00 0.00 0.00 69 999.0
20260903095338 85 112 6.0 15.0 0.00 0.00 0.00 69 999.0
20260903095006 86 55 3.0 12.0 0.00 0.00 0.00 69 999.0
20260903094827 86 247 7.0 12.0 0.00 0.00 0.00 69 998.9
20260903094506 86 132 3.0 22.0 0.00 0.00 0.00 69 999.0
20260903094317 86 84 3.0 22.0 0.00 0.00 0.00 69 998.9
20260903094006 86 211 5.0 16.0 0.00 0.00 0.00 69 998.9
20260903093808 86 152 9.0 16.0 0.00 0.00 0.00 69 998.9
20260903093505 86 195 9.0 15.0 0.00 0.00 0.00 69 998.8
20260903093257 86 183 3.0 14.0 0.00 0.00 0.00 69 998.9
20260903093006 86 95 6.0 14.0 0.00 0.00 0.00 69 998.9
20260903092748 86 60 3.0 9.0 0.00 0.00 0.00 69 998.8
20260903092504 86 63 5.0 20.0 0.00 0.00 0.00 69 998.8
20260903092237 86 43 3.0 20.0 0.00 0.00 0.00 69 998.8
20260903092006 86 196 9.0 17.0 0.00 0.00 0.00 69 998.7
20260903091727 86 183 6.0 16.0 0.00 0.00 0.00 69 998.7
20260903091506 86 136 10.0 16.0 0.00 0.00 0.00 68 998.7
20260903091217 86 170 6.0 15.0 0.00 0.00 0.00 69 998.7
20260903091006 86 171 7.0 15.0 0.00 0.00 0.00 69 998.6
20260903090707 86 164 10.0 17.0 0.00 0.00 0.00 69 998.6
20260903090506 86 133 7.0 23.0 0.00 0.00 0.00 68 998.6
20260903090157 86 117 7.0 23.0 0.00 0.00 0.00 68 998.6
20260903090005 86 128 4.0 18.0 0.00 0.00 0.00 68 998.6
20260903085647 86 16 4.0 9.0 0.00 0.00 0.00 68 998.6
20260903085506 86 286 5.0 9.0 0.00 0.00 0.00 68 998.5
20260903085136 86 187 1.0 12.0 0.00 0.00 0.00 68 998.5
20260903085005 86 316 5.0 13.0 0.00 0.00 0.00 68 998.5
20260903084627 86 133 8.0 20.0 0.00 0.00 0.00 68 998.5
20260903084506 86 132 9.0 20.0 0.00 0.00 0.00 68 998.5
20260903084116 87 148 10.0 22.0 0.00 0.00 0.00 68 998.4
20260903084005 87 112 9.0 22.0 0.00 0.00 0.00 68 998.4
20260903083607 87 167 7.0 10.0 0.00 0.00 0.00 68 998.3
20260903083506 87 53 2.0 9.0 0.00 0.00 0.00 68 998.4
20260903083056 87 138 4.0 14.0 0.00 0.00 0.00 68 998.3
20260903083005 87 79 8.0 15.0 0.00 0.00 0.00 68 998.3
20260903082547 87 22 8.0 18.0 0.00 0.00 0.00 68 998.3
20260903082505 87 107 4.0 18.0 0.00 0.00 0.00 68 998.3
20260903082037 87 180 7.0 17.0 0.00 0.00 0.00 68 998.3
20260903082006 87 173 8.0 17.0 0.00 0.00 0.00 68 998.3
20260903081526 86 140 7.0 16.0 0.00 0.00 0.00 69 998.3
20260903081505 86 160 9.0 16.0 0.00 0.00 0.00 69 998.3
20260903081017 87 200 10.0 14.0 0.00 0.00 0.00 69 998.2
20260903081005 87 206 9.0 14.0 0.00 0.00 0.00 69 998.2
20260903080507 87 204 4.0 12.0 0.00 0.00 0.00 68 998.2
20260903080505 87 176 4.0 12.0 0.00 0.00 0.00 68 998.2
20260903080005 87 176 4.0 12.0 0.00 0.00 0.00 68 998.1
20260903075956 87 103 5.0 12.0 0.00 0.00 0.00 68 998.1
20260903075506 87 147 6.0 16.0 0.00 0.00 0.00 69 998.1
20260903075447 87 169 7.0 16.0 0.00 0.00 0.00 69 998.1
20260903075005 86 67 6.0 16.0 0.00 0.00 0.00 69 998.2
20260903074936 86 117 9.0 17.0 0.00 0.00 0.00 69 998.2
20260903074505 87 234 10.0 17.0 0.00 0.00 0.00 69 998.2
20260903074427 87 160 8.0 19.0 0.00 0.00 0.00 69 998.2
20260903074005 88 114 11.0 22.0 0.00 0.00 0.00 68 998.2
20260903073916 88 151 7.0 22.0 0.00 0.00 0.00 68 998.1
20260903073505 87 176 7.0 17.0 0.00 0.00 0.00 68 998.1
20260903073406 87 205 7.0 17.0 0.00 0.00 0.00 68 998.1
20260903073005 87 182 8.0 15.0 0.00 0.00 0.00 68 998.2
20260903072856 87 163 4.0 21.0 0.00 0.00 0.00 69 998.2
20260903072505 86 277 12.0 21.0 0.00 0.00 0.00 69 998.2
20260903072346 86 212 6.0 15.0 0.00 0.00 0.00 70 998.3
20260903072005 86 153 9.0 20.0 0.00 0.00 0.00 70 998.3
20260903071836 86 216 12.0 20.0 0.00 0.00 0.00 70 998.2
20260903071505 86 215 8.0 18.0 0.00 0.00 0.00 71 998.3
20260903071326 86 234 9.0 18.0 0.00 0.00 0.00 71 998.3
20260903071005 86 201 10.0 20.0 0.00 0.00 0.00 70 998.3
20260903070816 85 205 10.0 26.0 0.00 0.00 0.00 71 998.3
20260903070504 85 148 15.0 26.0 0.00 0.00 0.00 70 998.2
20260903070306 86 147 13.0 19.0 0.00 0.00 0.00 70 998.2
20260903070005 86 237 11.0 27.0 0.00 0.00 0.00 70 998.2
20260903065756 85 206 12.0 27.0 0.00 0.00 0.00 70 998.2
20260903065505 85 187 14.0 20.0 0.00 0.00 0.00 70 998.1
20260903065004 85 219 13.0 24.0 0.00 0.00 0.00 70 998.2
20260903064736 85 211 10.0 25.0 0.00 0.00 0.00 71 998.2
20260903064505 85 142 16.0 26.0 0.00 0.00 0.00 71 998.3
20260903064226 85 175 18.0 24.0 0.00 0.00 0.00 70 998.3
20260903064005 85 172 17.0 25.0 0.00 0.00 0.00 70 998.3
20260903063715 85 169 17.0 29.0 0.00 0.00 0.00 70 998.3
20260903063504 85 202 21.0 32.0 0.00 0.00 0.00 70 998.4
20260903063206 85 183 20.0 33.0 0.00 0.00 0.00 70 998.5
20260903063004 85 161 19.0 33.0 0.00 0.00 0.00 70 998.3
20260903062656 85 190 13.0 28.0 0.00 0.00 0.00 70 998.4
20260903062145 84 166 19.0 30.0 0.00 0.00 0.00 70 998.5
20260903062004 84 182 23.0 30.0 0.00 0.00 0.00 70 998.5
20260903061636 84 187 21.0 29.0 0.00 0.00 0.00 70 998.5
20260903061505 84 184 18.0 29.0 0.00 0.00 0.00 71 998.6
20260903061125 84 170 17.0 23.0 0.00 0.00 0.00 71 998.6
20260903061004 85 162 15.0 23.0 0.00 0.00 0.00 71 998.7
20260903060616 85 163 14.0 21.0 0.00 0.00 0.00 70 998.7
20260903060504 85 162 13.0 21.0 0.00 0.00 0.00 70 998.8
20260903060105 85 210 11.0 21.0 0.00 0.00 0.00 70 998.7
20260903060004 85 253 10.0 21.0 0.00 0.00 0.00 71 998.7
20260903055555 85 192 13.0 24.0 0.00 0.00 0.00 70 998.7
20260903055504 85 180 10.0 24.0 0.00 0.00 0.00 70 998.8
20260903055045 85 255 11.0 24.0 0.00 0.00 0.00 71 998.7
20260903055004 85 239 14.0 24.0 0.00 0.00 0.00 71 998.7
20260903054535 85 223 8.0 23.0 0.00 0.00 0.00 72 998.8
20260903054504 85 253 10.0 23.0 0.00 0.00 0.00 72 998.8
20260903054026 85 197 13.0 20.0 0.00 0.00 0.00 70 998.8
20260903054004 85 215 11.0 20.0 0.00 0.00 0.00 70 998.7
20260903053504 85 214 9.0 24.0 0.00 0.00 0.00 71 998.9
20260903053006 85 226 10.0 19.0 0.00 0.00 0.00 70 998.8
20260903053004 85 228 10.0 19.0 0.00 0.00 0.00 70 998.8
20260903052504 85 215 8.0 16.0 0.00 0.00 0.00 71 998.9
20260903052455 85 242 8.0 16.0 0.00 0.00 0.00 71 999.0
20260903052004 85 220 9.0 18.0 0.00 0.00 0.00 71 999.0
20260903051945 85 188 8.0 18.0 0.00 0.00 0.00 71 999.0
20260903051503 85 158 10.0 18.0 0.00 0.00 0.00 70 999.0
20260903051435 85 183 11.0 18.0 0.00 0.00 0.00 70 999.0
20260903051004 86 216 9.0 17.0 0.00 0.00 0.00 68 999.0
20260903050925 86 150 7.0 17.0 0.00 0.00 0.00 69 999.0
20260903050504 86 157 5.0 17.0 0.00 0.00 0.00 69 999.1
20260903050415 86 117 11.0 19.0 0.00 0.00 0.00 68 999.0
20260903050004 86 203 13.0 20.0 0.00 0.00 0.00 68 999.0
20260903045905 86 208 12.0 21.0 0.00 0.00 0.00 69 999.0
20260903045504 86 244 15.0 23.0 0.00 0.00 0.00 69 999.0
20260903045003 86 154 13.0 27.0 0.00 0.00 0.00 69 999.0
20260903044845 86 182 10.0 22.0 0.00 0.00 0.00 69 998.9
20260903044504 85 136 10.0 19.0 0.00 0.00 0.00 69 999.1
20260903044334 85 186 11.0 18.0 0.00 0.00 0.00 70 999.0
20260903044003 85 146 12.0 26.0 0.00 0.00 0.00 70 999.0
20260903043825 85 167 9.0 26.0 0.00 0.00 0.00 70 999.1
20260903043504 85 135 10.0 20.0 0.00 0.00 0.00 70 999.1
20260903043314 85 244 13.0 20.0 0.00 0.00 0.00 70 999.1
20260903043003 85 206 12.0 19.0 0.00 0.00 0.00 70 999.1
20260903042805 85 204 10.0 19.0 0.00 0.00 0.00 70 999.1
20260903042504 85 129 14.0 21.0 0.00 0.00 0.00 70 999.1
20260903042254 85 192 12.0 23.0 0.00 0.00 0.00 70 999.0
20260903042003 85 160 13.0 23.0 0.00 0.00 0.00 70 999.0
20260903041745 85 229 17.0 23.0 0.00 0.00 0.00 70 999.1
20260903041504 85 233 14.0 26.0 0.00 0.00 0.00 70 999.0
20260903041234 85 232 14.0 28.0 0.00 0.00 0.00 70 999.1
20260903041003 84 200 15.0 28.0 0.00 0.00 0.00 70 999.1
20260903040725 85 230 16.0 27.0 0.00 0.00 0.00 70 999.1
20260903040504 85 154 16.0 29.0 0.00 0.00 0.00 70 999.1
20260903040214 85 165 17.0 26.0 0.00 0.00 0.00 70 999.1
20260903040003 85 160 14.0 25.0 0.00 0.00 0.00 70 999.1
20260903035705 85 229 19.0 25.0 0.00 0.00 0.00 70 999.1
20260903035503 85 180 10.0 22.0 0.00 0.00 0.00 70 999.2
20260903035154 85 237 14.0 25.0 0.00 0.00 0.00 70 999.2
20260903035003 85 178 16.0 26.0 0.00 0.00 0.00 70 999.3
20260903034644 85 171 15.0 28.0 0.00 0.00 0.00 70 999.2
20260903034503 85 187 18.0 28.0 0.00 0.00 0.00 69 999.3
20260903034135 85 201 18.0 25.0 0.00 0.00 0.00 69 999.3
20260903034002 85 156 12.0 26.0 0.00 0.00 0.00 70 999.5
20260903033624 85 153 18.0 27.0 0.00 0.00 0.00 69 999.4
20260903033503 85 194 18.0 27.0 0.00 0.00 0.00 69 999.4
20260903033114 85 226 13.0 28.0 0.00 0.00 0.00 70 999.6
20260903033003 85 117 16.0 28.0 0.00 0.00 0.00 69 999.5
20260903032604 85 245 14.0 21.0 0.00 0.00 0.00 70 999.5
20260903032502 85 228 12.0 21.0 0.00 0.00 0.00 70 999.5
20260903032054 85 190 10.0 28.0 0.00 0.00 0.00 70 999.5
20260903032003 85 229 13.0 28.0 0.00 0.00 0.00 70 999.6
20260903031545 85 182 11.0 21.0 0.00 0.00 0.00 70 999.6
20260903031503 85 165 11.0 20.0 0.00 0.00 0.00 70 999.6
20260903031034 84 208 16.0 26.0 0.00 0.00 0.00 70 999.6
20260903031003 84 214 17.0 26.0 0.00 0.00 0.00 70 999.5
20260903030524 84 159 13.0 19.0 0.00 0.00 0.00 70 999.6
20260903030503 84 223 13.0 20.0 0.00 0.00 0.00 70 999.5
20260903030014 84 206 14.0 22.0 0.00 0.00 0.00 70 999.7
20260903030002 84 218 13.0 22.0 0.00 0.00 0.00 71 999.6
20260903025505 83 156 11.0 18.0 0.00 0.00 0.00 71 999.6
20260903025503 83 168 11.0 18.0 0.00 0.00 0.00 71 999.6
20260903024954 83 198 11.0 21.0 0.00 0.00 0.00 71 999.6
20260903024503 83 167 12.0 21.0 0.00 0.00 0.00 71 999.7
20260903024444 83 188 11.0 21.0 0.00 0.00 0.00 71 999.6
20260903024003 83 211 12.0 22.0 0.00 0.00 0.00 71 999.6
20260903023935 83 174 15.0 22.0 0.00 0.00 0.00 71 999.6
20260903023502 83 220 15.0 21.0 0.00 0.00 0.00 71 999.5
20260903023424 83 222 14.0 21.0 0.00 0.00 0.00 71 999.5
20260903023003 83 223 13.0 20.0 0.00 0.00 0.00 71 999.5
20260903022914 83 286 12.0 20.0 0.00 0.00 0.00 71 999.6
20260903022502 83 197 13.0 22.0 0.00 0.00 0.00 71 999.6
20260903022404 83 253 14.0 22.0 0.00 0.00 0.00 71 999.5
20260903022003 83 252 12.0 20.0 0.00 0.00 0.00 71 999.6
20260903021502 82 191 14.0 21.0 0.00 0.00 0.00 71 999.5
20260903021343 82 210 14.0 21.0 0.00 0.00 0.00 71 999.5
20260903021003 82 218 12.0 23.0 0.00 0.00 0.00 72 999.6
20260903020834 82 229 15.0 23.0 0.00 0.00 0.00 71 999.6
20260903020502 83 221 13.0 20.0 0.00 0.00 0.00 71 999.6
20260903020323 83 176 12.0 21.0 0.00 0.00 0.00 71 999.5
20260903020002 83 236 15.0 24.0 0.00 0.00 0.00 71 999.6
20260903015814 83 252 14.0 24.0 0.00 0.00 0.00 71 999.6
20260903015501 82 233 13.0 24.0 0.00 0.00 0.00 72 999.6
20260903015305 82 181 13.0 24.0 0.00 0.00 0.00 72 999.6
20260903015002 82 248 12.0 22.0 0.00 0.00 0.00 72 999.6
20260903014754 82 250 12.0 22.0 0.00 0.00 0.00 72 999.6
20260903014503 82 226 14.0 21.0 0.00 0.00 0.00 72 999.6
20260903014243 82 200 10.0 23.0 0.00 0.00 0.00 72 999.6
20260903014002 82 219 15.0 23.0 0.00 0.00 0.00 72 999.5
20260903013734 82 188 13.0 24.0 0.00 0.00 0.00 72 999.6
20260903013503 82 217 12.0 24.0 0.00 0.00 0.00 72 999.7
20260903013223 82 175 12.0 21.0 0.00 0.00 0.00 72 999.6
20260903013002 82 201 13.0 21.0 0.00 0.00 0.00 72 999.6
20260903012714 82 153 14.0 20.0 0.00 0.00 0.00 72 999.6
20260903012502 82 223 11.0 19.0 0.00 0.00 0.00 72 999.6
20260903012203 82 168 12.0 24.0 0.00 0.00 0.00 72 999.6
20260903012002 82 205 12.0 26.0 0.00 0.00 0.00 72 999.6
20260903011653 82 135 14.0 26.0 0.00 0.00 0.00 72 999.7
20260903011502 82 260 11.0 19.0 0.00 0.00 0.00 72 999.6
20260903011001 81 197 13.0 23.0 0.00 0.00 0.00 72 999.6
20260903010633 81 186 12.0 20.0 0.00 0.00 0.00 73 999.6
20260903010502 81 221 12.0 20.0 0.00 0.00 0.00 73 999.6
20260903010123 81 229 14.0 20.0 0.00 0.00 0.00 73 999.6
20260903010002 81 245 11.0 20.0 0.00 0.00 0.00 73 999.6
20260903005613 81 190 11.0 20.0 0.00 0.00 0.00 73 999.7
20260903005502 81 186 13.0 20.0 0.00 0.00 0.00 73 999.7
20260903005103 81 182 13.0 22.0 0.00 0.00 0.00 73 999.6
20260903005001 81 214 13.0 22.0 0.00 0.00 0.00 73 999.6
20260903004553 81 206 14.0 24.0 0.00 0.00 0.00 72 999.5
20260903004502 81 140 13.0 24.0 0.00 0.00 0.00 73 999.6
20260903004002 81 222 12.0 22.0 0.00 0.00 0.00 73 999.7
20260903003533 81 248 8.0 24.0 0.00 0.00 0.00 73 999.7
20260903003501 80 184 8.0 24.0 0.00 0.00 0.00 73 999.7
20260903003023 80 215 14.0 23.0 0.00 0.00 0.00 73 999.6
20260903003002 80 177 14.0 23.0 0.00 0.00 0.00 73 999.7
20260903002513 80 190 14.0 23.0 0.00 0.00 0.00 73 999.7
20260903002501 80 158 13.0 20.0 0.00 0.00 0.00 73 999.7
20260903002004 80 201 10.0 20.0 0.00 0.00 0.00 73 999.6
20260903002001 80 224 10.0 20.0 0.00 0.00 0.00 73 999.6
20260903001501 80 120 15.0 31.0 0.00 0.00 0.00 73 999.7
20260903001452 80 193 16.0 31.0 0.00 0.00 0.00 73 999.6
20260903001001 80 141 11.0 23.0 0.00 0.00 0.00 73 999.7
20260903000943 80 187 12.0 23.0 0.00 0.00 0.00 73 999.7
20260903000502 80 219 12.0 20.0 0.00 0.00 0.00 74 999.7
20260903000433 80 218 13.0 20.0 0.00 0.00 0.00 74 999.7
20260903000001 80 225 12.0 23.0 0.00 0.00 0.00 74 999.7
20260902235922 80 222 13.0 23.0 0.00 0.00 0.00 74 999.7
20260902235502 80 234 9.0 19.0 0.00 0.00 0.00 74 999.6
20260902235413 80 228 9.0 19.0 0.00 0.00 0.00 74 999.7
20260902235001 80 220 12.0 22.0 0.00 0.00 0.00 74 999.7
20260902234501 80 188 10.0 22.0 0.00 0.00 0.00 74 999.6
20260902234353 80 253 13.0 26.0 0.00 0.00 0.00 73 999.6
20260902234001 80 225 14.0 26.0 0.00 0.00 0.00 74 999.5
20260902233842 80 202 15.0 23.0 0.00 0.00 0.00 73 999.6
20260902233501 80 180 12.0 19.0 0.00 0.00 0.00 74 999.4
20260902233333 79 173 7.0 19.0 0.00 0.00 0.00 75 999.5
20260902233001 79 177 12.0 22.0 0.00 0.00 0.00 74 999.4
20260902232822 79 244 12.0 22.0 0.00 0.00 0.00 75 999.4
20260902232501 79 220 12.0 22.0 0.00 0.00 0.00 75 999.3
20260902232312 79 231 13.0 22.0 0.00 0.00 0.00 74 999.2
20260902232001 79 187 9.0 24.0 0.00 0.00 0.00 74 999.3
20260902231802 79 200 14.0 24.0 0.00 0.00 0.00 74 999.2
20260902231500 79 122 16.0 24.0 0.00 0.00 0.00 74 999.2
20260902231252 79 218 12.0 23.0 0.00 0.00 0.00 74 999.2
20260902231001 79 196 16.0 23.0 0.00 0.00 0.00 74 999.1
20260902230742 79 181 12.0 22.0 0.00 0.00 0.00 74 999.1
20260902230501 79 311 14.0 22.0 0.00 0.00 0.00 74 999.1
20260902230232 79 230 14.0 22.0 0.00 0.00 0.00 74 999.1
20260902230001 79 272 12.0 24.0 0.00 0.00 0.00 74 999.1
20260902225722 79 253 16.0 24.0 0.00 0.00 0.00 74 999.1
20260902225501 79 235 10.0 18.0 0.00 0.00 0.00 74 999.1
20260902225212 79 203 8.0 26.0 0.00 0.00 0.00 74 999.1
20260902225000 79 260 13.0 26.0 0.00 0.00 0.00 74 999.1
20260902224702 79 218 13.0 23.0 0.00 0.00 0.00 74 999.1
20260902224501 79 217 12.0 19.0 0.00 0.00 0.00 74 999.1
20260902224152 79 299 10.0 21.0 0.00 0.00 0.00 74 999.1
20260902224000 79 221 12.0 21.0 0.00 0.00 0.00 74 999.1
20260902223642 79 244 12.0 21.0 0.00 0.00 0.00 74 999.1
20260902223501 79 178 12.0 21.0 0.00 0.00 0.00 74 999.2
20260902223132 79 251 10.0 21.0 0.00 0.00 0.00 75 999.0
20260902223001 79 184 14.0 21.0 0.00 0.00 0.00 74 999.1
20260902222622 79 240 13.0 20.0 0.00 0.00 0.00 74 999.0
20260902222500 79 205 10.0 19.0 0.00 0.00 0.00 75 999.1
20260902222112 79 277 13.0 26.0 0.00 0.00 0.00 74 999.0
20260902222001 79 155 15.0 26.0 0.00 0.00 0.00 74 999.0
20260902221602 79 240 14.0 21.0 0.00 0.00 0.00 74 999.0
20260902221500 79 204 11.0 22.0 0.00 0.00 0.00 75 999.0
20260902221052 79 205 15.0 22.0 0.00 0.00 0.00 74 999.0
20260902221001 79 151 14.0 22.0 0.00 0.00 0.00 75 999.0
20260902220541 79 242 15.0 22.0 0.00 0.00 0.00 74 999.0
20260902220500 79 222 12.0 22.0 0.00 0.00 0.00 74 999.0
20260902220032 79 175 9.0 20.0 0.00 0.00 0.00 74 999.1
20260902220001 79 223 9.0 20.0 0.00 0.00 0.00 74 999.0
20260902215521 79 214 14.0 21.0 0.00 0.00 0.00 74 998.9
20260902215500 79 197 12.0 21.0 0.00 0.00 0.00 74 999.0
20260902215012 79 221 10.0 20.0 0.00 0.00 0.00 74 998.9
20260902215000 79 169 11.0 20.0 0.00 0.00 0.00 74 998.9
20260902214503 79 144 11.0 22.0 0.00 0.00 0.00 74 998.9
20260902214501 79 178 11.0 22.0 0.00 0.00 0.00 74 998.9
20260902214000 79 176 10.0 22.0 0.00 0.00 0.00 74 999.0
20260902213951 79 148 11.0 22.0 0.00 0.00 0.00 74 998.9
20260902213502 79 206 10.0 20.0 0.00 0.00 0.00 74 998.9
20260902213442 79 198 7.0 20.0 0.00 0.00 0.00 74 998.9
20260902213000 79 193 9.0 19.0 0.00 0.00 0.00 74 998.9
20260902212931 79 232 10.0 19.0 0.00 0.00 0.00 74 998.9
20260902212500 79 122 12.0 19.0 0.00 0.00 0.00 75 998.9
20260902212422 79 223 12.0 19.0 0.00 0.00 0.00 75 998.8
20260902211959 79 231 11.0 25.0 0.00 0.00 0.00 75 998.8
20260902211911 79 219 12.0 25.0 0.00 0.00 0.00 74 998.8
20260902211500 79 225 12.0 23.0 0.00 0.00 0.00 74 998.8
20260902211402 79 235 13.0 23.0 0.00 0.00 0.00 74 998.8
20260902210959 79 139 10.0 19.0 0.00 0.00 0.00 74 998.8
20260902210851 79 161 11.0 19.0 0.00 0.00 0.00 75 998.8
20260902210500 79 216 9.0 16.0 0.00 0.00 0.00 74 998.7
20260902210342 79 227 8.0 16.0 0.00 0.00 0.00 75 998.8
20260902205959 79 239 10.0 17.0 0.00 0.00 0.00 74 998.7
20260902205831 79 251 8.0 18.0 0.00 0.00 0.00 74 998.8
20260902205500 79 221 10.0 18.0 0.00 0.00 0.00 74 998.7
20260902205321 79 211 10.0 17.0 0.00 0.00 0.00 74 998.8
20260902205000 79 205 10.0 21.0 0.00 0.00 0.00 74 998.8
20260902204810 79 234 12.0 21.0 0.00 0.00 0.00 74 998.7
20260902204500 79 186 13.0 21.0 0.00 0.00 0.00 74 998.7
20260902204301 79 213 10.0 19.0 0.00 0.00 0.00 74 998.7
20260902204000 79 219 9.0 20.0 0.00 0.00 0.00 74 998.7
20260902203751 79 222 10.0 20.0 0.00 0.00 0.00 74 998.7
20260902203459 79 211 14.0 20.0 0.00 0.00 0.00 74 998.5
20260902203241 79 227 13.0 21.0 0.00 0.00 0.00 74 998.6
20260902203000 79 223 10.0 21.0 0.00 0.00 0.00 74 998.6
20260902202731 80 254 7.0 17.0 0.00 0.00 0.00 74 998.6
20260902202459 80 238 11.0 17.0 0.00 0.00 0.00 74 998.5
20260902202221 80 233 10.0 17.0 0.00 0.00 0.00 73 998.4
20260902201959 80 146 8.0 13.0 0.00 0.00 0.00 73 998.4
20260902201711 80 133 7.0 13.0 0.00 0.00 0.00 73 998.4
20260902201500 80 134 7.0 13.0 0.00 0.00 0.00 73 998.4
20260902201201 80 152 1.0 13.0 0.00 0.00 0.00 73 998.4
20260902200959 80 43 2.0 13.0 0.00 0.00 0.00 73 998.5
20260902200651 80 141 4.0 15.0 0.00 0.00 0.00 73 998.5
20260902200500 80 19 6.0 15.0 0.00 0.00 0.00 73 998.6
20260902200140 80 188 8.0 15.0 0.00 0.00 0.00 73 998.6
20260902195959 80 192 9.0 19.0 0.00 0.00 0.00 73 998.5
20260902195631 80 114 9.0 19.0 0.00 0.00 0.00 73 998.6
20260902195500 80 207 1.0 15.0 0.00 0.00 0.00 73 998.7
20260902195120 80 126 10.0 17.0 0.00 0.00 0.00 73 998.6
20260902194959 80 187 8.0 17.0 0.00 0.00 0.00 73 998.6
20260902194611 80 77 4.0 15.0 0.00 0.00 0.00 73 998.7
20260902194459 80 147 6.0 17.0 0.00 0.00 0.00 73 998.6
20260902194101 80 220 10.0 20.0 0.00 0.00 0.00 73 998.7
20260902193959 80 219 6.0 20.0 0.00 0.00 0.00 73 998.7
20260902193550 80 197 8.0 18.0 0.00 0.00 0.00 73 998.7
20260902193459 80 133 8.0 24.0 0.00 0.00 0.00 73 998.7
20260902193041 80 145 13.0 24.0 0.00 0.00 0.00 73 998.7
20260902193000 80 127 13.0 19.0 0.00 0.00 0.00 73 998.8
20260902192530 80 112 5.0 24.0 0.00 0.00 0.00 73 998.8
20260902192459 80 140 3.0 24.0 0.00 0.00 0.00 73 998.8
20260902192021 80 161 5.0 18.0 0.00 0.00 0.00 73 998.8
20260902191959 80 149 6.0 18.0 0.00 0.00 0.00 73 998.9
20260902191510 80 203 10.0 18.0 0.00 0.00 0.00 73 998.9
20260902191459 80 137 9.0 18.0 0.00 0.00 0.00 73 998.9
20260902191001 80 159 10.0 18.0 0.00 0.00 0.00 74 998.9
20260902190959 80 119 10.0 18.0 0.00 0.00 0.00 74 998.9
20260902190459 80 133 12.0 21.0 0.00 0.00 0.00 74 999.0
20260902190450 80 200 12.0 21.0 0.00 0.00 0.00 74 999.0
20260902185959 80 126 8.0 18.0 0.00 0.00 0.00 73 999.0
20260902185940 80 175 8.0 18.0 0.00 0.00 0.00 73 999.0
20260902185458 80 167 2.0 17.0 0.00 0.00 0.00 74 999.0
20260902185430 80 226 4.0 17.0 0.00 0.00 0.00 74 998.9
20260902184959 80 197 9.0 19.0 0.00 0.00 0.00 74 999.0
20260902184920 80 161 11.0 19.0 0.00 0.00 0.00 74 999.0
20260902184458 80 207 10.0 23.0 0.00 0.00 0.00 74 999.0
20260902184411 80 280 14.0 26.0 0.00 0.00 0.00 74 998.9